This is the latest recevied weather packets stored in our database for station/object VY2CRA-4. If no packets are shown the sender has not sent any weather packets the latest 1 day(s).
| Time | Temp. | Humidity | Pressure | Rain* | Wind** | Luminosity | Snow |
|---|---|---|---|---|---|---|---|
| 1777993628 | 32.22° C | 100% | 1005.7 hPa | 0 mm | 0 m/s | - | - |
| 1777992427 | 32.22° C | 100% | 1005.9 hPa | 0 mm | 0 m/s | - | - |
| 1777991228 | 32.22° C | 100% | 1006 hPa | 0 mm | 0 m/s | - | - |
| 1777990027 | 32.22° C | 1% | 1006 hPa | 0 mm | 0 m/s | - | - |
| 1777988826 | 32.22° C | 1% | 1006.1 hPa | 0 mm | 0 m/s | - | - |
| 1777987625 | 31.67° C | 3% | 1006.2 hPa | 0 mm | 0 m/s | - | - |
| 1777986423 | 30.56° C | 6% | 1006.1 hPa | 0 mm | 0 m/s | - | - |
| 1777985224 | 30° C | 7% | 1006.3 hPa | 0 mm | 0 m/s | - | - |
| 1777984022 | 30° C | 8% | 1006.4 hPa | 0 mm | 0 m/s | - | - |
| 1777982821 | 30° C | 8% | 1006.4 hPa | 0 mm | 0 m/s | - | - |
| 1777981620 | 29.44° C | 10% | 1006.5 hPa | 0 mm | 0 m/s | - | - |
| 1777980418 | 24.44° C | 23% | 1006.7 hPa | 0 mm | 0 m/s | - | - |
| 1777979217 | 17.22° C | 44% | 1006.7 hPa | 0 mm | 0 m/s | - | - |
| 1777978016 | 13.89° C | 52% | 1006.4 hPa | 0 mm | 0 m/s | - | - |
| 1777975614 | 11.67° C | 56% | 1006 hPa | 0 mm | 0 m/s | - | - |
| 1777974413 | 10.56° C | 59% | 1005.9 hPa | 0 mm | 0 m/s | - | - |
| 1777973212 | 9.44° C | 58% | 1005.8 hPa | 0 mm | 0 m/s | - | - |
| 1777972012 | 9.44° C | 57% | 1005.6 hPa | 0 mm | 0 m/s | - | - |
| 1777970810 | 9.44° C | 57% | 1005.5 hPa | 0 mm | 0 m/s | - | - |
| 1777969610 | 9.44° C | 57% | 1005.4 hPa | 0 mm | 0 m/s | - | - |
* Rain since midnight (hover to see other rain measurements)
** Current wind speed in m/s (hover to see current wind gust speed)